This demonstration page uses our WeatherBlox Daily Observations layout. Learn more.

Left ArrowRight Arrow

Hourly Observations for December 31, 2021

Temp ( °F °C ) Dew Point ( °F °C ) Humidity (%) Winds ( mph kmh ) Pressure ( in mb ) Visibility ( mi km ) Precip ( " mm )
12:53 am 00:53 Cloudy -7 -21.7 -14 -25.6 71 71 VRB 7 11 30.02 1017 10 16 0.00 0.00
1:29 am 01:29 Mostly Cloudy -8 -22.2 -15 -26.1 71 71 W 5 7 30.20 1023 10 16 0.00 0.00
1:41 am 01:41 Cloudy -9 -22.8 -15 -26.1 75 75 WNW 6 9 30.20 1023 10 16 0.00 0.00
1:53 am 01:53 Mostly Cloudy -10 -23.3 -16 -26.7 74 74 W 6 9 30.05 1018 10 16 0.00 0.00
2:53 am 02:53 Clear -11 -23.9 -18 -27.8 70 70 W 8 13 30.08 1019 10 16 0.00 0.00
3:53 am 03:53 Cloudy -11 -23.9 -17 -27.2 74 74 WSW 6 9 30.10 1019 10 16 0.00 0.00
4:53 am 04:53 Cloudy -11 -23.9 -18 -27.8 70 70 WSW 6 9 30.11 1020 10 16 0.00 0.00
5:53 am 05:53 Cloudy -12 -24.4 -18 -27.8 73 73 WSW 6 9 30.13 1020 10 16 0.00 0.00
6:53 am 06:53 Cloudy -14 -25.6 -19 -28.3 78 78 SSW 7 11 30.16 1021 10 16 0.00 0.00
7:53 am 07:53 Cloudy -17 -27.2 -22 -30 77 77 W 5 7 30.19 1022 10 16 0.00 0.00
8:53 am 08:53 Cloudy -15 -26.1 -20 -28.9 77 77 W 7 11 30.22 1023 9 14 0.00 0.00
9:53 am 09:53 Partly Cloudy -12 -24.4 -19 -28.3 70 70 SW 5 7 30.24 1024 10 16 0.00 0.00
10:53 am 10:53 Mostly Cloudy -10 -23.3 -18 -27.8 67 67 W 6 9 30.25 1024 10 16 0.00 0.00
11:53 am 11:53 Partly Cloudy -9 -22.8 -17 -27.2 67 67 WNW 9 15 30.24 1024 10 16 0.00 0.00
12:53 pm 12:53 Sunny -9 -22.8 -17 -27.2 67 67 W 6 9 30.23 1024 10 16 0.00 0.00
1:53 pm 13:53 Sunny -9 -22.8 -17 -27.2 67 67 SW 7 11 30.24 1024 10 16 0.00 0.00
2:53 pm 14:53 Sunny -9 -22.8 -16 -26.7 71 71 SW 8 13 30.26 1025 10 16 0.00 0.00
3:53 pm 15:53 Sunny -12 -24.4 -19 -28.3 70 70 SW 8 13 30.27 1025 10 16 0.00 0.00
4:53 pm 16:53 Clear -17 -27.2 -22 -30 77 77 SW 8 13 30.29 1026 10 16 0.00 0.00
5:53 pm 17:53 Cloudy -18 -27.8 -23 -30.6 77 77 Calm 30.30 1026 10 16 0.00 0.00
6:53 pm 18:53 Cloudy -19 -28.3 -24 -31.1 77 77 W 5 7 30.32 1027 10 16 0.00 0.00
7:53 pm 19:53 Clear -20 -28.9 -25 -31.7 77 77 WSW 6 9 30.32 1027 10 16 0.00 0.00
8:53 pm 20:53 Clear -21 -29.4 -26 -32.2 77 77 W 5 7 30.32 1027 10 16 0.00 0.00
9:53 pm 21:53 Clear -21 -29.4 -27 -32.8 72 72 W 6 9 30.30 1026 10 16 0.00 0.00
10:53 pm 22:53 Clear -23 -30.6 -28 -33.3 77 77 W 6 9 30.30 1026 10 16 0.00 0.00
11:53 pm 23:53 Clear -22 -30 -27 -32.8 76 76 WSW 7 11 30.28 1026 10 16 0.00 0.00

Powered by AerisWeather